| time (UTC) | temp F | wind direction | speed knots | gust knots | rain 1hr in | rain 24hr in | rain mn in | humidity % | barometer mb |
| 20260508203019 | 52 | 90 | 8.7 | 11.3 | 0.00 | 0.17 | 0.00 | 73 | 1001.5 |
| 20260508201516 | 53 | 70 | 6.1 | 11.3 | 0.00 | 0.17 | 0.00 | 71 | 1001.5 |
| 20260508200014 | 51 | 78 | 8.7 | 10.4 | 0.00 | 0.45 | 0.00 | 74 | 1001.3 |
| 20260508194513 | 51 | 86 | 6.1 | 9.6 | 0.00 | 0.45 | 0.00 | 74 | 1001.2 |
| 20260508193011 | 52 | 97 | 7.8 | 11.3 | 0.00 | 0.45 | 0.00 | 73 | 1001.1 |
| 20260508191510 | 52 | 70 | 8.7 | 12.2 | 0.00 | 0.45 | 0.00 | 73 | 1000.9 |
| 20260508190007 | 51 | 77 | 7.0 | 11.3 | 0.00 | 0.76 | 0.00 | 74 | 1000.9 |
| 20260508184506 | 51 | 85 | 7.0 | 11.3 | 0.00 | 0.76 | 0.00 | 75 | 1000.9 |
| 20260508183004 | 51 | 86 | 7.8 | 13.0 | 0.00 | 0.76 | 0.00 | 74 | 1001.2 |
| 20260508181508 | 52 | 94 | 8.7 | 11.3 | 0.00 | 0.76 | 0.00 | 73 | 1001.0 |
| 20260508180001 | 52 | 80 | 9.6 | 13.9 | 0.00 | 0.76 | 0.00 | 77 | 1000.9 |
| 20260508174559 | 53 | 82 | 9.6 | 13.0 | 0.00 | 0.76 | 0.00 | 77 | 1001.0 |
| 20260508173100 | 53 | 88 | 9.6 | 12.2 | 0.00 | 0.76 | 0.00 | 76 | 1001.0 |
| 20260508171609 | 52 | 89 | 9.6 | 13.0 | 0.00 | 0.76 | 0.00 | 76 | 1001.4 |
| 20260508170100 | 52 | 94 | 8.7 | 12.2 | 0.00 | 0.76 | 0.00 | 76 | 1001.2 |
| 20260508164556 | 52 | 105 | 9.6 | 12.2 | 0.00 | 0.76 | 0.00 | 76 | 1001.2 |
| 20260508163057 | 51 | 99 | 10.4 | 13.0 | 0.00 | 0.76 | 0.00 | 77 | 1001.4 |
| 20260508161554 | 51 | 92 | 9.6 | 13.0 | 0.00 | 0.76 | 0.00 | 76 | 1001.3 |
| 20260508160056 | 53 | 92 | 8.7 | 11.3 | 0.00 | 0.76 | 0.00 | 76 | 1001.2 |
| 20260508154653 | 52 | 77 | 7.8 | 12.2 | 0.00 | 0.76 | 0.00 | 77 | 1001.3 |
| 20260508153052 | 52 | 74 | 9.6 | 11.3 | 0.00 | 0.76 | 0.00 | 77 | 1001.4 |
| 20260508151554 | 53 | 99 | 8.7 | 11.3 | 0.00 | 0.76 | 0.00 | 76 | 1001.6 |
| 20260508150050 | 52 | 94 | 9.6 | 12.2 | 0.00 | 0.76 | 0.00 | 76 | 1001.8 |
| 20260508144549 | 52 | 99 | 10.4 | 13.0 | 0.00 | 0.76 | 0.00 | 78 | 1001.7 |
| 20260508143050 | 53 | 80 | 9.6 | 12.2 | 0.00 | 0.76 | 0.00 | 76 | 1002.0 |
| 20260508141547 | 53 | 80 | 7.0 | 10.4 | 0.00 | 0.76 | 0.00 | 79 | 1002.1 |
| 20260508140046 | 53 | 83 | 7.8 | 10.4 | 0.00 | 0.76 | 0.00 | 79 | 1002.4 |
| 20260508134545 | 52 | 85 | 7.0 | 9.6 | 0.00 | 0.76 | 0.00 | 84 | 1002.5 |
| 20260508133045 | 51 | 80 | 7.0 | 9.6 | 0.00 | 0.76 | 0.00 | 85 | 1002.4 |
| 20260508131544 | 51 | 98 | 9.6 | 11.3 | 0.00 | 0.76 | 0.00 | 85 | 1002.2 |
| 20260508130105 | 50 | 92 | 9.6 | 12.2 | 0.00 | 0.76 | 0.00 | 86 | 1002.3 |
| 20260508124543 | 50 | 87 | 8.7 | 12.2 | 0.00 | 0.77 | 0.00 | 87 | 1002.0 |
| 20260508123042 | 54 | 81 | 8.7 | 11.3 | 0.00 | 0.77 | 0.00 | 82 | 1002.0 |
| 20260508121542 | 54 | 94 | 6.1 | 8.7 | 0.00 | 0.77 | 0.00 | 83 | 1002.0 |
| 20260508120034 | 51 | 64 | 2.6 | 6.1 | 0.00 | 0.85 | 0.00 | 88 | 1002.3 |
| 20260508114530 | 50 | 103 | 1.7 | 3.5 | 0.00 | 0.85 | 0.00 | 97 | 1002.2 |
| 20260508113026 | 47 | 171 | 0.9 | 3.5 | 0.00 | 0.85 | 0.00 | 99 | 1002.2 |
| 20260508111524 | 45 | 207 | 0.0 | 2.6 | 0.00 | 0.85 | 0.00 | 99 | 1002.5 |
| 20260508110024 | 43 | 280 | 0.0 | 1.7 | 0.00 | 0.85 | 0.00 | 99 | 1002.9 |
| 20260508104534 | 43 | 305 | 0.0 | 2.6 | 0.00 | 0.85 | 0.00 | 99 | 1002.7 |
| 20260508103033 | 43 | 83 | 0.0 | 1.7 | 0.00 | 0.85 | 0.00 | 99 | 1002.8 |
| 20260508101520 | 42 | 83 | 0.0 | 1.7 | 0.00 | 0.85 | 0.00 | 99 | 1002.6 |
| 20260508100018 | 42 | 83 | 0.0 | 3.5 | 0.00 | 0.85 | 0.00 | 99 | 1002.5 |
| 20260508094516 | 42 | 67 | 3.5 | 5.2 | 0.00 | 0.85 | 0.00 | 99 | 1002.4 |
| 20260508093014 | 42 | 264 | 0.0 | 1.7 | 0.00 | 0.85 | 0.00 | 98 | 1002.1 |
| 20260508091516 | 42 | 264 | 0.9 | 2.6 | 0.00 | 0.85 | 0.00 | 98 | 1002.3 |
| 20260508090016 | 42 | 264 | 0.0 | 2.6 | 0.00 | 0.85 | 0.00 | 98 | 1002.0 |
| 20260508084512 | 42 | 266 | 1.7 | 4.3 | 0.00 | 0.85 | 0.00 | 98 | 1001.8 |
| 20260508083010 | 42 | 71 | 0.9 | 2.6 | 0.00 | 0.85 | 0.00 | 98 | 1001.5 |
| 20260508081508 | 42 | 71 | 0.0 | 0.0 | 0.00 | 0.85 | 0.00 | 98 | 1001.5 |
| 20260508080008 | 42 | 71 | 0.0 | 0.0 | 0.00 | 0.85 | 0.00 | 98 | 1001.5 |
| 20260508074508 | 42 | 71 | 0.0 | 2.6 | 0.00 | 0.85 | 0.00 | 98 | 1001.5 |
| 20260508073006 | 42 | 71 | 0.9 | 3.5 | 0.00 | 0.85 | 0.00 | 98 | 1001.5 |
| 20260508071507 | 42 | 84 | 1.7 | 6.1 | 0.00 | 0.85 | 0.00 | 98 | 1001.6 |
| 20260508070010 | 42 | 292 | 0.0 | 2.6 | 0.00 | 0.85 | 0.00 | 98 | 1001.6 |
| 20260508064502 | 42 | 70 | 0.0 | 0.0 | 0.00 | 0.85 | 0.00 | 98 | 1001.5 |
| 20260508063101 | 42 | 70 | 0.9 | 4.3 | 0.00 | 0.85 | 0.00 | 97 | 1001.5 |
| 20260508061604 | 44 | 70 | 1.7 | 3.5 | 0.00 | 0.85 | 0.00 | 98 | 1001.5 |
| 20260508060056 | 44 | 70 | 0.0 | 0.0 | 0.00 | 0.85 | 0.00 | 97 | 1001.1 |
| 20260508054557 | 44 | 70 | 0.0 | 0.0 | 0.00 | 0.85 | 0.00 | 97 | 1001.3 |
| 20260508053103 | 44 | 70 | 0.0 | 3.5 | 0.00 | 0.85 | 0.00 | 97 | 1001.3 |
| 20260508051553 | 45 | 62 | 2.6 | 8.7 | 0.00 | 0.85 | 0.00 | 96 | 1001.2 |
| 20260508050047 | 46 | 65 | 0.9 | 1.7 | 0.00 | 0.85 | 0.00 | 97 | 1001.3 |
| 20260508044546 | 46 | 65 | 0.0 | 0.0 | 0.00 | 0.85 | 0.00 | 97 | 1001.5 |
| 20260508043058 | 46 | 65 | 0.0 | 0.0 | 0.00 | 0.85 | 0.00 | 97 | 1001.5 |
| 20260508041546 | 46 | 65 | 0.0 | 0.0 | 0.00 | 0.85 | 0.00 | 97 | 1001.4 |
| 20260508040043 | 46 | 65 | 0.0 | 0.0 | 0.00 | 0.85 | 0.00 | 96 | 1001.6 |
| 20260508034542 | 46 | 65 | 0.0 | 0.9 | 0.00 | 0.85 | 0.00 | 96 | 1001.6 |
| 20260508033039 | 46 | 65 | 0.9 | 2.6 | 0.00 | 0.85 | 0.00 | 96 | 1001.8 |
| 20260508031536 | 46 | 65 | 1.7 | 5.2 | 0.00 | 0.85 | 0.00 | 95 | 1002.0 |
| 20260508030047 | 46 | 70 | 0.9 | 7.0 | 0.00 | 0.85 | 0.85 | 94 | 1002.0 |
| 20260508024533 | 47 | 20 | 0.9 | 5.2 | 0.00 | 0.85 | 0.85 | 92 | 1002.3 |
| 20260508023025 | 51 | 85 | 10.4 | 13.9 | 0.00 | 0.85 | 0.85 | 89 | 1001.9 |
| 20260508021523 | 51 | 213 | 1.7 | 4.3 | 0.00 | 0.85 | 0.85 | 91 | 1001.8 |
| 20260508020021 | 52 | 242 | 3.5 | 6.1 | 0.00 | 0.85 | 0.85 | 91 | 1001.8 |
| 20260508014519 | 53 | 232 | 2.6 | 9.6 | 0.00 | 0.85 | 0.85 | 91 | 1001.5 |
| 20260508013018 | 53 | 216 | 6.1 | 8.7 | 0.00 | 0.85 | 0.85 | 92 | 1001.4 |
| 20260508011515 | 53 | 224 | 4.3 | 7.8 | 0.00 | 0.85 | 0.85 | 93 | 1001.0 |
| 20260508010022 | 52 | 239 | 4.3 | 9.6 | 0.00 | 0.85 | 0.85 | 93 | 1001.2 |
| 20260508004514 | 53 | 223 | 1.7 | 7.0 | 0.00 | 0.85 | 0.85 | 94 | 1001.3 |
| 20260508003012 | 53 | 250 | 3.5 | 6.1 | 0.00 | 0.85 | 0.85 | 93 | 1001.4 |
| 20260508001511 | 53 | 267 | 1.7 | 7.0 | 0.00 | 0.85 | 0.85 | 94 | 1001.3 |
| 20260508000010 | 53 | 265 | 0.9 | 5.2 | 0.00 | 0.85 | 0.85 | 94 | 1001.4 |
| 20260507234509 | 53 | 265 | 0.0 | 2.6 | 0.00 | 0.85 | 0.85 | 93 | 1001.3 |
| 20260507233008 | 54 | 250 | 0.9 | 6.1 | 0.00 | 0.85 | 0.85 | 92 | 1001.3 |
| 20260507231514 | 54 | 262 | 4.3 | 7.0 | 0.00 | 0.85 | 0.85 | 92 | 1001.4 |
| 20260507230006 | 54 | 228 | 0.9 | 6.1 | 0.00 | 0.85 | 0.85 | 92 | 1001.5 |
| 20260507224506 | 54 | 292 | 2.6 | 6.1 | 0.00 | 0.85 | 0.85 | 92 | 1001.4 |
| 20260507223008 | 54 | 280 | 1.7 | 7.0 | 0.00 | 0.85 | 0.85 | 92 | 1001.2 |
| 20260507221507 | 54 | 247 | 3.5 | 11.3 | 0.00 | 0.85 | 0.85 | 92 | 1001.5 |
| 20260507220003 | 55 | 271 | 2.6 | 7.0 | 0.00 | 0.85 | 0.85 | 93 | 1001.8 |
| 20260507214503 | 55 | 215 | 1.7 | 7.8 | 0.01 | 0.85 | 0.85 | 95 | 1001.7 |
| 20260507213002 | 54 | 243 | 0.9 | 9.6 | 0.03 | 0.85 | 0.85 | 94 | 1001.5 |
| 20260507211501 | 54 | 206 | 7.0 | 12.2 | 0.10 | 0.85 | 0.85 | 94 | 1002.3 |
| 20260507210100 | 54 | 253 | 5.2 | 16.5 | 0.17 | 0.85 | 0.85 | 94 | 1001.2 |
| 20260507204601 | 54 | 302 | 4.3 | 11.3 | 0.22 | 0.84 | 0.84 | 94 | 1001.5 |